My Profile
  1. Member Settings
  2. My Devices
  3. Sign Out
        More Settings
      Elev 623 ft, 39.334 °N 82.963 °W

      Chillicothe, OH

      Summary

      Temperature (°F)MaxAverageMin
      Max Temperature8875.4461
      Avg Temperature76.6864.0753.54
      Min Temperature7054.5641
      Precipitation (in)MaxAverageMinSum
      Precipitation3.250.54017.39
      Dew Point (°F)MaxAverageMin
      Dew Point6754.139.81
      Wind (mph)MaxAverageMin
      Wind2313.035
      Gust Wind4319.899
      Sea Level Pressure (in)MaxAverageMin
      Sea Level Pressure29.4729.2128.9

      Daily Observations

      DateTemp High/LowDew Pt High/LowHumidityWindMax WindWind GustPressurePrecip.Condition
      5/1/2022 75 °F / 54 °F 59 °F / 32 °F 68 % 23 mph - 29.1 in 0.36 in
      5/2/2022 72 °F / 43 °F 52 °F / 37 °F 67 % 16 mph - 29.27 in 0 in
      5/3/2022 79 °F / 52 °F 68 °F / 45 °F 88 % 22 mph - 29.12 in 2 in
      5/4/2022 61 °F / 52 °F 61 °F / 50 °F 92 % 12 mph - 29.27 in 0.35 in
      5/5/2022 63 °F / 52 °F 55 °F / 50 °F 87 % 9 mph - 29.28 in 0.13 in
      5/6/2022 68 °F / 54 °F 64 °F / 54 °F 98 % 13 mph - 28.89 in 2.01 in
      5/7/2022 57 °F / 50 °F 55 °F / 45 °F 86 % 17 mph - 28.96 in 0.44 in
      5/8/2022 68 °F / 41 °F 50 °F / 32 °F 63 % 13 mph - 29.24 in 0 in
      5/9/2022 73 °F / 43 °F 48 °F / 32 °F 60 % 14 mph - 29.35 in 0 in
      5/10/2022 82 °F / 46 °F 59 °F / 37 °F 56 % 10 mph - 29.42 in 0 in
      5/11/2022 84 °F / 50 °F 55 °F / 30 °F 60 % 12 mph - 29.42 in 0 in
      5/12/2022 82 °F / 45 °F 55 °F / 36 °F 58 % 10 mph - 29.38 in 0 in
      5/13/2022 81 °F / 55 °F 59 °F / 50 °F 60 % 12 mph - 29.28 in 0 in
      5/14/2022 81 °F / 57 °F 63 °F / 52 °F 74 % 18 mph - 29.17 in 1.64 in
      5/15/2022 81 °F / 59 °F 64 °F / 50 °F 76 % 9 mph - 29.12 in 0.03 in
      5/16/2022 73 °F / 54 °F 61 °F / 37 °F 71 % 20 mph - 29.06 in 0.42 in
      5/17/2022 75 °F / 50 °F 52 °F / 36 °F 57 % 15 mph - 29.18 in 0 in
      5/18/2022 73 °F / 52 °F 63 °F / 45 °F 77 % 8 mph - 29.14 in 0.32 in
      5/19/2022 79 °F / 59 °F 63 °F / 59 °F 85 % 14 mph - 29.02 in 0.26 in
      5/20/2022 86 °F / 63 °F 68 °F / 59 °F 72 % 17 mph - 28.97 in 1.66 in
      5/21/2022 86 °F / 63 °F 64 °F / 59 °F 72 % 17 mph - 29.21 in 1.49 in
      5/22/2022 70 °F / 59 °F 66 °F / 48 °F 86 % 13 mph - 29.37 in 1.1 in
      5/23/2022 61 °F / 50 °F 55 °F / 41 °F 74 % 10 mph - 29.46 in 0.2 in
      5/24/2022 72 °F / 48 °F 61 °F / 45 °F 75 % 8 mph - 29.38 in 0 in
      5/25/2022 81 °F / 57 °F 68 °F / 57 °F 78 % 13 mph - 29.3 in 0 in
      5/26/2022 73 °F / 61 °F 68 °F / 59 °F 89 % 13 mph - 29.18 in 2.78 in
      5/27/2022 66 °F / 59 °F 63 °F / 54 °F 94 % 10 mph - 29.03 in 2.2 in
      5/28/2022 68 °F / 57 °F 61 °F / 55 °F 89 % 9 mph - 29.15 in 0 in
      5/29/2022 79 °F / 54 °F 64 °F / 54 °F 78 % 8 mph - 29.23 in 0 in
      5/30/2022 86 °F / 63 °F 64 °F / 50 °F 65 % 13 mph - 29.28 in 0 in
      5/31/2022 88 °F / 64 °F 70 °F / 57 °F 67 % 12 mph - 29.28 in 0 in
      essentialaccessibility.com
      We recognize our responsibility to use data and technology for good. We may use or share your data with our data vendors. Take control of your data.
      Glossary